Regional Weather Roundup
Issued by NWS

Home | Current Version | Previous Version | Graphics & Text | Print | Product List | Glossary On
Versions: 1 2 3 4 5 6 7 8 9 10 11 12 13 14 15 16 17 18 19 20 21 22 23 24 25 26 27 28 29 30 31 32 33 34 35 36 37 38 39 40 41 42 43 44 45 46 47 48 49 50
000
ASUS45 KBOU 260207
RWRCO

WEATHER ROUNDUP FOR COLORADO
NATIONAL WEATHER SERVICE DENVER/BOULDER CO
700 PM MST TUE NOV 25 2014

NOTE: "FAIR" INDICATES FEW OR NO CLOUDS BELOW 12000 FEET WITH NO
SIGNIFICANT WEATHER AND/OR OBSTRUCTIONS TO VISIBILITY.

COZ001>005-013-030-031-260300-
...NORTHWEST COLORADO...

CITY           SKY/WX    TMP DP  RH WIND       PRES   REMARKS
CRAIG          CLOUDY    28  21  75 E10       30.17S WCI  19
HAYDEN         CLOUDY    25  19  80 E6        30.16S WCI  18
MEEKER         CLOUDY    31  22  69 NW5       30.23R WCI  26
MOUNT WERNER   NOT AVBL
STEAMBOAT SPGS CLOUDY    26  24  96 CALM      30.17S
WALDEN         CLOUDY    30  23  74 SW14G23   30.04F WCI  20
$$

COZ006>008-011-260300-
...WEST CENTRAL VALLEYS...

CITY           SKY/WX    TMP DP  RH WIND       PRES   REMARKS
GRAND JUNCTION CLOUDY    35  19  52 CALM      30.29R
MONTROSE       CLOUDY    33  18  53 CALM      30.31S
EAGLE          CLOUDY    30  19  64 S5        30.27  WCI  25
RIFLE          CLOUDY    28  21  75 CALM      30.31R
DELTA          CLOUDY    37  22  53 E6        30.32R
NUCLA          CLOUDY    37  12  35 E8        30.35R
$$

COZ017>023-064>068-260300-
...SOUTHWEST COLORADO...

CITY           SKY/WX    TMP DP  RH WIND       PRES   REMARKS
DURANGO        CLEAR     34  12  40 SW12      30.25R WCI  25
CORTEZ         CLEAR     27   9  46 NE7       30.35R WCI  19
PAGOSA SPRINGS CLEAR     25   9  51 CALM      30.27S
TELLURIDE      NOT AVBL
WOLF CREEK PAS PTCLDY    12   7  79 MISG      30.24S
$$

COZ009-010-012-014-032>034-037-058>063-260300-
...CENTRAL COLORADO...

CITY           SKY/WX    TMP DP  RH WIND       PRES   REMARKS
ASPEN          LGT SNOW  22  19  89 N5        30.26R FOG     WCI  16
BUENA VISTA    CLOUDY    30  17  58 NW15G25   30.13F WCI  19
COPPER MTN     CLOUDY    19  14  79 W25G41    30.12R WCI   2
BERTHOUD PASS  NOT AVBL
COTTONWOOD PAS LGT SNOW  28  19  69 NW26G38   30.09R WCI  13
GUNNISON       CLOUDY    25  19  80 N3        30.31R
KREMMLING      LGT SNOW  28  23  80 W13G23    30.16R WCI  18
LEADVILLE      LGT SNOW  21  17  84 N15G23    30.15S FOG     WCI   8
MONARCH PASS   CLOUDY    14  10  85 MISG      30.24F
SALIDA         PTCLDY    36  19  48 W29G49    30.18R
SUNLIGHT       MIX PCPN N/A N/A N/A SW5       30.24S
WILKERSON PASS PTCLDY    19  18  93 NW15G32   30.08R WCI   5
$$

COZ069>075-260300-
...SAN LUIS VALLEY/SANGRE DE CRISTO MOUNTAINS...

CITY           SKY/WX    TMP DP  RH WIND       PRES   REMARKS
ALAMOSA        PTCLDY    21   7  54 E7        30.19R WCI  12
LA VETA PASS   PTCLDY    23  12  63 S14G29    30.10R WCI  11
SAGUACHE       NOT AVBL
$$

COZ035-036-038>040-260300-
...NORTHERN COLORADO FRONT RANGE...

CITY           SKY/WX    TMP DP  RH WIND       PRES   REMARKS
DENVER INTL AP PTCLDY    43  21  41 NW12      29.91R
DMNS CITY PARK   N/A     47  18  32 NW15G33   29.92R
AURORA         MOCLDY    44  20  37 NW22G28   29.93R
FRONT RANGE AP NOT AVBL
ERIE MUNI ARPT PTCLDY    47  18  31 NW16G25   29.90S
BOULDER MUN AP PTCLDY    45  19  36 E3        29.89R
CENTENNIAL     MOCLDY    42  21  43 N16       29.93R
BROOMFIELD     MOCLDY    46  19  34 W23G38    29.91S
FORT COLLINS   PTCLDY    46  21  36 NW25G39   29.91R
LONGMONT       PTCLDY    46  22  39 E6        29.90S
$$

COZ041-046-047-076>085-087-088-260300-
...PIKES PEAK/PALMER DIVIDE AND SOUTHERN FOOTHILLS...

CITY           SKY/WX    TMP DP  RH WIND       PRES   REMARKS
COLO. SPRINGS  MOCLDY    42  18  37 N10       29.95F
A. F. ACADEMY  MOCLDY    42  15  34 NW17G38   29.95F
ELLICOTT       NOT AVBL
FALCON         NOT AVBL
FORT CARSON    MOCLDY    44  17  32 S6        29.93F
LIMON          CLOUDY    29  16  58 W3        29.92S
MONUMENT HILL  CLOUDY    32  21  64 W6        29.95S WCI  26
TRINIDAD       PTCLDY    44  21  40 NW15      30.00R
$$

COZ042>045-048>051-090-091-260300-
...NORTHEAST COLORADO...

CITY           SKY/WX    TMP DP  RH WIND       PRES   REMARKS
GREELEY ARPT   PTCLDY    46  23  39 NW21G28   29.90R
AKRON          CLOUDY    37  27  67 N17G23    29.93R
BURLINGTON     CLOUDY    47  21  35 N10       29.91S
WRAY           CLOUDY    42  32  67 NW15      29.94R
STERLING       CLOUDY    39  34  81 N15G21    29.95R
HOLYOKE        CLOUDY    39  34  81 N21       29.92R
FORT MORGAN    CLOUDY    38  28  69 N16G25    29.95R
$$

COZ086-089-092>099-260300-
...SOUTHEAST COLORADO...

CITY           SKY/WX    TMP DP  RH WIND       PRES   REMARKS
PUEBLO         MOCLDY    48  18  30 NW13G24   29.94R
LA JUNTA       MOCLDY    41  22  46 W13       29.93R
LAMAR          PTCLDY    33  16  49 SW8       29.91R WCI  26
SPRINGFIELD      N/A     27  15  61 W3        29.94R
$$


USA.gov is the U.S. government's official web portal to all federal, state and local government web resources and services.